Location: Liscomb Game Sanctuary
(45.1633°N, 62.5575°W)
Time: 12:51:30

USA 215 - Pass Details

Date: 22 February 2018
Orbit: 1101 x 1107 km, 123.0° (Epoch: 19 March)

Event Time Altitude Azimuth Distance (km) Brightness Sun altitude
Exits shadow 20:53:00 61° 3° (N) 1,243 3.5 -32.9°
Maximum altitude 20:53:45 65° 329° (NNW) 1,201 3.5 -33.0°
Drops below altitude 10° 21:00:12 10° 249° (WSW) 2,955 6.0 -34.1°
Sets 21:02:41 0° 247° (WSW) 3,912 6.7 -34.5°
